Tracking 23757 objects as of 24-Oct-2021
HD Live streaming from Space Station
objects crossing your sky now

DELTA 1 DEB

Track DELTA 1 DEB now!
10-day predictions


NORAD ID: 9003
Int'l Code: 1975-004CM
Perigee: 624.4 km
Apogee: 663.0 km
Inclination: 98.1 °
Period: 97.4 minutes
Semi major axis: 7014 km
RCS: 0.043 m2 (small)
Launch date: January 22, 1975
Source: United States (US)
Launch site: AIR FORCE WESTERN TEST RANGE (AFWTR)

Note: This is SATELLITE DEBRIS
aabbcc
Your satellite tracking list
Your tracking list is empty




NASA's NSSDC Master Catalog

Two Line Element Set (TLE):
1 09003U 75004CM  21297.54692022  .00000362  00000-0  57881-4 0  9993
2 09003  98.1286  46.5934 0027519 332.7071  27.2691 14.77700270416571
Source of the keplerian elements: AFSPC